This is the latest recevied weather packets stored in our database for station/object KB9YVI-11. If no packets are shown the sender has not sent any weather packets the latest 10 day(s).
| Time | Temp. | Humidity | Pressure | Rain* | Wind** | Luminosity | Snow |
|---|---|---|---|---|---|---|---|
| 1777508152 | 14.44° C | 81% | 0 hPa | 0 mm | - | - | - |
| 1777507852 | 14.44° C | 83% | 0 hPa | 0 mm | - | - | - |
| 1777507552 | 14.44° C | 84% | 0 hPa | 0 mm | - | - | - |
| 1777507252 | 14.44° C | 84% | 0 hPa | 0 mm | - | - | - |
| 1777506952 | 15° C | 83% | 0 hPa | 0 mm | - | - | - |
| 1777506652 | 15° C | 83% | 0 hPa | 0 mm | - | - | - |
| 1777506052 | 15° C | 84% | 0 hPa | 0 mm | - | - | - |
| 1777505752 | 15.56° C | 83% | 0 hPa | 0 mm | - | - | - |
| 1777505451 | 15.56° C | 81% | 0 hPa | 0 mm | - | - | - |
| 1777505152 | 15.56° C | 82% | 0 hPa | 0 mm | - | - | - |
| 1777504552 | 15.56° C | 80% | 0 hPa | 0 mm | - | - | - |
| 1777504252 | 15.56° C | 80% | 0 hPa | 0 mm | - | - | - |
| 1777503652 | 16.11° C | 80% | 0 hPa | 0 mm | - | - | - |
| 1777503352 | 16.11° C | 78% | 0 hPa | 0 mm | - | - | - |
| 1777502752 | 16.67° C | 80% | 0 hPa | 0 mm | - | - | - |
| 1777502452 | 16.67° C | 79% | 0 hPa | 0 mm | - | - | - |
| 1777502152 | 16.67° C | 82% | 0 hPa | 0 mm | - | - | - |
| 1777501851 | 16.67° C | 81% | 0 hPa | 0 mm | - | - | - |
| 1777501554 | 17.22° C | 80% | 0 hPa | 0 mm | - | - | - |
| 1777501252 | 17.22° C | 81% | 0 hPa | 0 mm | - | - | - |
| 1777500652 | 17.22° C | 81% | 0 hPa | 0 mm | - | - | - |
| 1777500352 | 17.22° C | 83% | 0 hPa | 0 mm | - | - | - |
| 1777500052 | 17.22° C | 82% | 0 hPa | 0 mm | - | - | - |
| 1777499752 | 16.67° C | 83% | 0 hPa | 0 mm | - | - | - |
| 1777499452 | 16.67° C | 82% | 0 hPa | 0 mm | - | - | - |
* Rain latest hour (hover to see other rain measurements)
** Current wind speed in m/s (hover to see current wind gust speed)